This demonstration page uses our WeatherBlox Daily Observations layout. Learn more.

Left ArrowRight Arrow

39.08367, -84.50855

Hourly Observations for February 8, 2016

Temp ( °F °C ) Dew Point ( °F °C ) Humidity (%) Winds ( mph kmh ) Pressure ( in mb ) Visibility ( mi km ) Precip ( " mm )
12:53 am 00:53 Cloudy 42 5.6 26 -3.3 53 53 S 7 11 29.77 1008 10 16 N/A
1:53 am 01:53 Cloudy 43 6.1 26 -3.3 51 51 WSW 5 7 29.74 1007 10 16 N/A
2:53 am 02:53 Cloudy with Light Rain 43 6.1 33 0.6 68 68 N 7 11 29.73 1007 10 16 N/A
3:44 am 03:44 Cloudy with Light Rain 41 5 36 2 81 81 WNW 5 7 29.74 1007 10 16 N/A
3:53 am 03:53 Cloudy with Light Rain 40 4.4 36 2.2 86 86 W 5 7 29.72 1006 8 13 0.01 0.25
4:53 am 04:53 Cloudy with Light Rain 39 3.9 35 1.7 86 86 W 9 15 29.72 1006 6 10 0.06 1.52
5:28 am 05:28 Cloudy with Light Rain 37 3 36 2 93 93 N N/A 29.74 1007 10 16 N/A
5:53 am 05:53 Cloudy 36 2.2 35 1.7 97 97 N N/A 29.70 1006 10 16 0.02 0.51
6:53 am 06:53 Cloudy 37 2.8 36 2.2 96 96 S 5 7 29.70 1006 10 16 N/A
7:27 am 07:27 Cloudy with Light Rain 37 2.8 35 1.7 93 93 SW 10 17 29.71 1006 9 14 0.01 0.25
7:53 am 07:53 Cloudy with Light Rain 37 2.8 35 1.7 93 93 WSW 10 17 29.69 1005 10 16 0.01 0.25
8:53 am 08:53 Cloudy with Rain 34 1.1 34 1.1 100 100 WSW 6 9 29.69 1006 3 5 0.05 1.27
8:55 am 08:55 Cloudy with Light Rain 34 1.1 33 0.6 97 97 WSW 7 11 29.71 1006 3 5 0.01 0.25
9:51 am 09:51 Cloudy 37 3 34 1 87 87 W 10 17 29.71 1006 10 16 0.02 0.51
9:53 am 09:53 Cloudy 37 2.8 34 1.1 89 89 W 9 15 29.68 1005 10 16 0.02 0.51
10:53 am 10:53 Cloudy 37 2.8 34 1.1 89 89 W 9 15 29.69 1005 10 16 N/A
11:53 am 11:53 Cloudy 38 3.3 32 undefined 79 79 WNW 7 11 29.69 1005 10 16 N/A
12:22 pm 12:22 Cloudy 39 4 32 undefined 75 75 WNW 8 13 29.71 1006 10 16 N/A
12:53 pm 12:53 Cloudy 39 3.9 32 undefined 76 76 W 8 13 29.66 1004 10 16 N/A
1:53 pm 13:53 Partly Cloudy 40 4.4 31 -0.6 70 70 WSW 8 13 29.64 1004 9 14 N/A
2:12 pm 14:12 Mostly Cloudy 37 3 32 undefined 81 81 WSW 18 30 29.68 1005 7 11 N/A
2:24 pm 14:24 Cloudy with Light Snow 34 1 32 undefined 93 93 SW 14 22 29.68 1005 3 5 N/A
2:53 pm 14:53 Cloudy with Light Snow 35 1.7 34 1.1 96 96 W 9 15 29.66 1004 8 13 0.04 1.02
3:16 pm 15:16 Cloudy with Light Rain 36 2 34 1 93 93 W 12 19 29.68 1005 10 16 N/A
3:24 pm 15:24 Cloudy with Light Snow 34 1 34 1 100 100 W 9 15 29.68 1005 6 10 N/A
3:33 pm 15:33 Cloudy with Light Snow 33 0.6 33 0.6 100 100 W 10 17 29.71 1006 2 3 0.02 0.51
3:47 pm 15:47 Cloudy with Light Snow 34 1 34 1 100 100 NNW 5 7 29.68 1005 3 5 0.03 0.76
3:53 pm 15:53 Cloudy 34 1.1 32 undefined 92 92 VRB 5 7 29.67 1005 9 14 0.03 0.76
4:53 pm 16:53 Cloudy 35 1.7 34 1.1 96 96 S 3 6 29.68 1005 10 16 N/A
5:53 pm 17:53 Cloudy 35 1.7 31 -0.6 85 85 WSW 12 19 29.69 1006 10 16 N/A
6:21 pm 18:21 Cloudy with Light Rain 34 1.1 32 undefined 92 92 W 12 19 29.74 1007 6 10 N/A
6:53 pm 18:53 Cloudy with Light Snow 33 0.6 32 undefined 96 96 W 14 22 29.72 1007 3 4 N/A
7:34 pm 19:34 Cloudy with Light Snow 32 undefined 30 -1 93 93 W 15 24 29.77 1008 5 8 N/A
7:53 pm 19:53 Cloudy with Light Snow 31 -0.6 29 -1.7 92 92 W 15 24 29.75 1007 3 5 N/A
8:53 pm 20:53 Windy with Snow Likely 29 -1.7 26 -3.3 89 89 W 20 31 29.76 1008 2 3 N/A
9:20 pm 21:20 Cloudy with Light Snow 27 -3 25 -4 93 93 W 15 24 29.83 1010 2 3 N/A
9:53 pm 21:53 Cloudy with Light Snow 27 -2.8 24 -4.4 89 89 W 14 22 29.78 1009 1 2 0.01 0.25
10:53 pm 22:53 Cloudy with Light Snow 25 -3.9 22 -5.6 88 88 W 17 28 29.78 1008 1 2 N/A
11:53 pm 23:53 Cloudy with Light Snow 24 -4.4 20 -6.7 84 84 W 15 24 29.77 1008 2 3 N/A
11:57 pm 23:57 Cloudy with Light Snow 24 -4.4 21 -6.1 88 88 W 15 24 29.83 1010 2 3 N/A

Powered by AerisWeather